Location: Pedholt
(56.0260°N, 10.2097°E)
Time: 20:11:24
(UTC+00:00)

Tiros 1 - Pass Details

Date: 02 August 2021
Orbit: 630 x 663 km, 48.4° (Epoch: 19 September)

Event Time Altitude Azimuth Distance (km) Brightness Sun altitude
Rises 16:49:50 0° 205° (SSW) 2,980 10.9 19.4°
Reaches altitude 10° 16:53:03 10° 183° (S) 2,066 9.8 19.0°
Maximum altitude 16:55:46 15° 148° (SSE) 1,739 9.1 18.6°
Drops below altitude 10° 16:58:29 10° 113° (ESE) 2,061 9.2 18.2°
Sets 17:01:41 0° 91° (E) 2,967 9.9 17.8°
